Jefferson, NC

3:17 PM EST on November 18, 2019 (GMT -0500)
Ashe County

Weather History for KGEV - July, 2019

Change the Weather History Date:

Sunday, July 21, 2019

  Actual Average Record
Temperature  
Mean Temperature 73 °F -  
Max Temperature 83 °F 81 °F 90 °F (1987)
Min Temperature 63 °F 59 °F 53 °F (1968)
Cooling Degree Days 8    
Growing Degree Days 23 (Base 50)    
Moisture  
Dew Point 66 °F    
Average Humidity 86    
Maximum Humidity 100    
Minimum Humidity 53    
Precipitation  
Precipitation 0.63 in - - ()
Sea Level Pressure  
Sea Level Pressure 30.14 in    
Wind  
Wind Speed 2 mph (WSW)    
Max Wind Speed 9 mph    
Max Gust Speed -    
Visibility 8 miles    
Events Fog , Rain , Thunderstorm    
Averages and records for this station are not official NWS values.
T = Trace of Precipitation, MM = Missing Value Source: NWS Daily Summary

Daily Weather History Graph

Daily Weather History Graph

Search for Another Location

Airport or City:

Astronomy

Jul. 21, 2019 Rise Set
Actual Time 6:23 AM EDT 8:40 PM EDT
Civil Twilight 5:54 AM EDT 9:09 PM EDT
Nautical Twilight 5:18 AM EDT 9:45 PM EDT
Astronomical Twilight 4:38 AM EDT 10:24 PM EDT
Moon 11:41 PM EDT (7/21) 10:36 AM EDT (7/21)
Length of Visible Light 15h 15m
Length of Day
14h 16m
Waning Gibbous, 80% of the Moon is Illuminated
Jul 21
Waning Gibbous
Jul 24
Last Quarter
Jul 31
New
Aug 7
First Quarter
Aug 15
Full

Hourly Weather History & Observations

Time (EDT) Temp. Heat Index Dew Point Humidity Pressure Visibility Wind Dir Wind Speed Gust Speed Precip Events Conditions
12:15 AM 69.3 °F - 67.1 °F 93% 30.17 in 10.0 mi Calm Calm - N/A   Clear
12:35 AM 67.5 °F - 66.6 °F 97% 30.17 in 10.0 mi West 3.5 mph - N/A   Clear
12:55 AM 68.0 °F - 66.0 °F 93% 30.16 in 10.0 mi West 3.5 mph - N/A   Clear
1:15 AM 67.6 °F - 65.3 °F 92% 30.16 in 10.0 mi WSW 3.5 mph - N/A   Clear
1:35 AM 68.0 °F - 65.3 °F 91% 30.16 in 10.0 mi Calm Calm - N/A   Clear
1:55 AM 65.8 °F - 64.6 °F 96% 30.15 in 10.0 mi Calm Calm - N/A   Clear
2:15 AM 66.0 °F - 64.8 °F 96% 30.15 in 10.0 mi Calm Calm - N/A   Clear
2:35 AM 66.0 °F - 65.5 °F 98% 30.14 in 10.0 mi Calm Calm - N/A   Scattered Clouds
2:55 AM 66.2 °F - 65.7 °F 98% 30.14 in 5.0 mi Calm Calm - N/A   Clear
3:15 AM 66.0 °F - 65.3 °F 98% 30.14 in 10.0 mi Calm Calm - N/A   Clear
3:35 AM 66.4 °F - 65.5 °F 97% 30.14 in 10.0 mi Calm Calm - N/A   Clear
3:55 AM 65.3 °F - 64.8 °F 98% 30.14 in 7.0 mi Calm Calm - N/A   Clear
4:15 AM 66.2 °F - 65.3 °F 97% 30.14 in 10.0 mi Calm Calm - N/A   Clear
4:35 AM 66.4 °F - 65.3 °F 96% 30.13 in 10.0 mi Calm Calm - N/A   Clear
4:55 AM 65.1 °F - 64.8 °F 99% 30.13 in 5.0 mi Calm Calm - N/A   Scattered Clouds
5:15 AM 65.3 °F - 65.3 °F 100% 30.13 in 5.0 mi Calm Calm - N/A   Clear
5:35 AM 64.8 °F - 64.4 °F 99% 30.13 in 7.0 mi Calm Calm - N/A   Clear
5:55 AM 63.7 °F - 63.7 °F 100% 30.12 in 0.8 mi Calm Calm - N/A   Overcast
6:15 AM 63.7 °F - 63.7 °F 100% 30.13 in 2.5 mi Calm Calm - N/A   Mostly Cloudy
6:35 AM 63.5 °F - 63.5 °F 100% 30.14 in 0.2 mi Calm Calm - N/A Fog Fog
6:55 AM 64.2 °F - 64.2 °F 100% 30.14 in 0.5 mi Calm Calm - N/A Fog Fog
7:15 AM 63.1 °F - 63.1 °F 100% 30.15 in 0.2 mi Calm Calm - N/A Fog Fog
7:35 AM 65.8 °F - 65.8 °F 100% 30.15 in 2.0 mi Calm Calm - N/A   Mostly Cloudy
7:55 AM 64.2 °F - 64.2 °F 100% 30.15 in 0.2 mi Calm Calm - N/A Fog Fog
8:15 AM 67.1 °F - 66.7 °F 99% 30.15 in 10.0 mi Calm Calm - N/A   Scattered Clouds
8:35 AM 66.2 °F - 66.0 °F 99% 30.16 in 4.0 mi Calm Calm - N/A   Clear
8:55 AM 68.2 °F - 67.6 °F 98% 30.17 in 10.0 mi Calm Calm - N/A   Clear
9:15 AM 70.5 °F - 68.7 °F 94% 30.16 in 10.0 mi Calm Calm - N/A   Clear
9:35 AM 72.0 °F - 69.6 °F 92% 30.16 in 10.0 mi Calm Calm - N/A   Clear
9:55 AM 74.7 °F - 70.2 °F 86% 30.16 in 10.0 mi Calm Calm - N/A   Clear
10:15 AM 76.1 °F - 69.3 °F 79% 30.17 in 10.0 mi Calm Calm - N/A   Clear
10:35 AM 76.3 °F - 67.5 °F 74% 30.16 in 10.0 mi West 6.9 mph - N/A   Mostly Cloudy
10:55 AM 75.6 °F - 66.6 °F 74% 30.17 in 10.0 mi West 8.1 mph - N/A   Scattered Clouds
11:15 AM 78.1 °F - 67.1 °F 69% 30.17 in 10.0 mi WSW 6.9 mph - N/A   Clear
11:35 AM 79.0 °F - 67.3 °F 67% 30.17 in 10.0 mi West 9.2 mph - N/A   Clear
11:55 AM 79.5 °F - 66.4 °F 64% 30.17 in 10.0 mi West 6.9 mph - N/A   Clear
12:15 PM 79.2 °F - 65.5 °F 63% 30.17 in 10.0 mi West 6.9 mph - N/A   Clear
12:35 PM 79.3 °F - 63.3 °F 58% 30.16 in 10.0 mi WSW 4.6 mph - N/A   Clear
12:55 PM 80.8 °F 82.2 °F 63.9 °F 56% 30.16 in 10.0 mi WNW 4.6 mph - N/A   Clear
1:15 PM 81.3 °F 82.7 °F 63.7 °F 55% 30.16 in 10.0 mi West 4.6 mph - N/A   Clear
1:35 PM 81.5 °F 82.9 °F 64.0 °F 55% 30.15 in 10.0 mi West 8.1 mph - N/A   Clear
1:55 PM 82.4 °F 83.7 °F 63.5 °F 53% 30.15 in 10.0 mi West 6.9 mph - N/A   Clear
2:15 PM 81.9 °F 83.7 °F 65.5 °F 57% 30.14 in 10.0 mi NW 4.6 mph - N/A   Scattered Clouds
2:35 PM 82.8 °F 84.5 °F 64.9 °F 55% 30.13 in 10.0 mi West 6.9 mph - N/A   Clear
2:55 PM 82.8 °F 84.3 °F 64.6 °F 54% 30.12 in 10.0 mi West 5.8 mph - N/A   Clear
3:15 PM 83.1 °F 84.6 °F 64.4 °F 53% 30.12 in 10.0 mi West 5.8 mph - N/A   Clear
3:35 PM 82.8 °F 84.2 °F 64.2 °F 53% 30.11 in 10.0 mi Calm Calm - N/A Thunderstorm Scattered Clouds
3:55 PM 78.4 °F - 70.3 °F 76% 30.12 in 10.0 mi SSE 4.6 mph - N/A Thunderstorm Thunderstorm
4:15 PM 74.1 °F - 67.5 °F 80% 30.13 in 10.0 mi South 3.5 mph - N/A Thunderstorm Thunderstorm
4:35 PM 69.3 °F - 65.8 °F 89% 30.14 in 2.5 mi SE 9.2 mph - N/A Rain , Thunderstorm Light Thunderstorms and Rain
4:55 PM 68.5 °F - 66.6 °F 93% 30.14 in 1.0 mi Calm Calm - 0.47 in Rain , Thunderstorm Heavy Thunderstorms and Rain
5:15 PM 70.9 °F - 64.8 °F 81% 30.13 in 10.0 mi West 9.2 mph - 0.11 in Rain , Thunderstorm Light Thunderstorms and Rain
5:35 PM 69.4 °F - 67.3 °F 93% 30.13 in 10.0 mi SW 3.5 mph - 0.15 in Rain Rain
5:55 PM 72.0 °F - 67.6 °F 86% 30.11 in 7.0 mi Calm Calm - 0.16 in Rain , Thunderstorm Light Thunderstorms and Rain
6:15 PM 70.7 °F - 68.7 °F 93% 30.10 in 10.0 mi WSW 3.5 mph - N/A Rain Light Rain
6:35 PM 71.8 °F - 68.9 °F 91% 30.11 in 10.0 mi Calm Calm - N/A   Scattered Clouds
6:55 PM 71.2 °F - 68.9 °F 92% 30.12 in 10.0 mi Calm Calm - N/A   Scattered Clouds
7:15 PM 70.0 °F - 69.8 °F 99% 30.12 in 1.8 mi Calm Calm - N/A   Mostly Cloudy
7:35 PM 70.7 °F - 69.8 °F 97% 30.11 in 10.0 mi Calm Calm - N/A   Scattered Clouds
7:55 PM 70.9 °F - 69.8 °F 96% 30.11 in 10.0 mi Calm Calm - N/A   Scattered Clouds
8:15 PM 72.9 °F - 68.4 °F 86% 30.12 in 10.0 mi Calm Calm - N/A   Scattered Clouds
8:35 PM 70.9 °F - 69.3 °F 95% 30.12 in 10.0 mi Calm Calm - N/A   Mostly Cloudy
8:55 PM 70.9 °F - 69.3 °F 95% 30.12 in 10.0 mi Calm Calm - N/A   Mostly Cloudy
9:15 PM 71.4 °F - 68.2 °F 89% 30.12 in 10.0 mi Calm Calm - N/A   Scattered Clouds
9:35 PM 72.5 °F - 67.8 °F 85% 30.13 in 10.0 mi SW 3.5 mph - N/A   Mostly Cloudy
9:55 PM 70.5 °F - 68.2 °F 92% 30.12 in 10.0 mi Calm Calm - N/A   Scattered Clouds
10:15 PM 69.3 °F - 68.4 °F 97% 30.12 in 10.0 mi Calm Calm - N/A   Clear
10:35 PM 70.2 °F - 68.0 °F 93% 30.13 in 10.0 mi Calm Calm - N/A   Clear
10:55 PM 70.7 °F - 66.6 °F 87% 30.13 in 10.0 mi West 4.6 mph - N/A   Scattered Clouds
11:15 PM 70.7 °F - 66.2 °F 86% 30.13 in 10.0 mi West 4.6 mph - N/A   Mostly Cloudy
11:35 PM 71.6 °F - 65.7 °F 81% 30.12 in 10.0 mi West 4.6 mph - N/A   Scattered Clouds
11:55 PM 70.5 °F - 66.0 °F 86% 30.12 in 10.0 mi Calm Calm - N/A   Clear